Location: Poprad
(49.0500°N, 20.3000°E)
Time: 00:32:25
(UTC+01:00)

ISS - Visible Passes

Search period start: 05 December 2023 00:00
Search period end: 15 December 2023 00:00
Orbit: 415 x 417 km, 51.6° (Epoch: 04 December)

Date Brightness Start Highest point End Pass type
(mag) Time Alt. Az. Time Alt. Az. Time Alt. Az.
05 Dec -2.1 16:41:48 10° W 16:44:55 36° SSW 16:48:01 10° SE visible
06 Dec -0.4 17:31:35 10° WSW 17:32:35 11° SW 17:33:36 10° SSW visible
07 Dec -0.7 16:42:00 10° W 16:44:17 17° SW 16:46:33 10° S visible
